Weather History for KFAY - September, 2013

Change the Weather History Date:

Wednesday, September 18, 2013

  Actual Average Record
Temperature  
Mean Temperature 66 °F 73 °F  
Max Temperature 80 °F 83 °F 106 °F (1931)
Min Temperature 51 °F 63 °F 48 °F (1984)
Degree Days  
Heating Degree Days 0 0  
Month to date heating degree days 0 0  
Since 1 July heating degree days 0 0  
Cooling Degree Days 1 8  
Month to date cooling degree days 224 190  
Year to date cooling degree days 1803 1830  
Growing Degree Days 15 (Base 50)    
Moisture  
Dew Point 51 °F    
Average Humidity 63    
Maximum Humidity 93    
Minimum Humidity 32    
Precipitation  
Precipitation 0.00 in 0.15 in 3.59 in (2002)
Month to date precipitation 0.15 2.69  
Year to date precipitation 34.71 34.12  
Sea Level Pressure  
Sea Level Pressure 30.22 in    
Wind  
Wind Speed 6 mph (NNE)    
Max Wind Speed 13 mph    
Max Gust Speed 17 mph    
Visibility 10 miles    
Events      
T = Trace of Precipitation, MM = Missing Value Source: NWS Daily Summary

Daily Weather History Graph

Daily Weather History Graph

Search for Another Location

Airport or City:

Trip Planner

Search our weather history database for the weather conditions in past years. The results will help you decide how hot, cold, wet, or windy it might be!

Date:

Astronomy

Sep. 18, 2013 Rise Set
Actual Time 7:00 AM EDT 7:17 PM EDT
Civil Twilight 6:35 AM EDT 7:43 PM EDT
Nautical Twilight 6:05 AM EDT 8:12 PM EDT
Astronomical Twilight 5:35 AM EDT 8:42 PM EDT
Moon 6:40 PM EDT (9/18) 6:01 AM EDT (9/18)
Length of Visible Light 13h 07m
Length of Day
12h 16m
Waxing Gibbous, 99% of the Moon is Illuminated
Sep 18
Waxing Gibbous
Sep 19
Full
Sep 26
Last Quarter
Oct 4
New
Oct 11
First Quarter

Hourly Weather History & Observations

Time (EDT) Temp. Dew Point Humidity Pressure Visibility Wind Dir Wind Speed Gust Speed Precip Events Conditions
12:53 AM 59.0 °F 53.1 °F 81% 30.26 in 10.0 mi NE 5.8 mph - N/A   Clear
1:53 AM 57.9 °F 52.0 °F 81% 30.26 in 10.0 mi NE 5.8 mph - N/A   Clear
2:53 AM 55.9 °F 51.1 °F 84% 30.25 in 10.0 mi NNE 5.8 mph - N/A   Clear
3:53 AM 53.1 °F 51.1 °F 93% 30.25 in 10.0 mi NNE 6.9 mph - N/A   Clear
4:53 AM 53.1 °F 50.0 °F 89% 30.24 in 10.0 mi NNE 5.8 mph - N/A   Clear
5:53 AM 53.1 °F 50.0 °F 89% 30.24 in 10.0 mi North 4.6 mph - N/A   Clear
6:53 AM 51.1 °F 48.9 °F 92% 30.25 in 10.0 mi NNE 5.8 mph - N/A   Clear
7:53 AM 55.9 °F 51.1 °F 84% 30.26 in 10.0 mi North 9.2 mph - N/A   Clear
8:53 AM 61.0 °F 50.0 °F 67% 30.27 in 10.0 mi North 11.5 mph - N/A   Clear
9:53 AM 64.0 °F 51.1 °F 63% 30.27 in 10.0 mi NNE 10.4 mph 16.1 mph N/A   Clear
10:53 AM 68.0 °F 52.0 °F 56% 30.27 in 10.0 mi NNE 9.2 mph - N/A   Clear
11:53 AM 71.1 °F 52.0 °F 51% 30.25 in 10.0 mi North 4.6 mph - N/A   Clear
12:53 PM 75.0 °F 50.0 °F 41% 30.23 in 10.0 mi North 9.2 mph - N/A   Clear
1:53 PM 75.9 °F 48.0 °F 37% 30.20 in 10.0 mi ENE 10.4 mph - N/A   Clear
2:53 PM 78.1 °F 46.9 °F 33% 30.19 in 10.0 mi Variable 6.9 mph - N/A   Clear
3:53 PM 79.0 °F 48.0 °F 34% 30.17 in 10.0 mi NE 9.2 mph - N/A   Clear
4:53 PM 78.1 °F 46.9 °F 33% 30.16 in 10.0 mi North 8.1 mph - N/A   Clear
5:53 PM 75.0 °F 48.0 °F 38% 30.15 in 10.0 mi ENE 4.6 mph - N/A   Clear
6:53 PM 71.1 °F 52.0 °F 51% 30.15 in 10.0 mi NNE 3.5 mph - N/A   Clear
7:53 PM 66.0 °F 53.1 °F 63% 30.15 in 10.0 mi North 3.5 mph - N/A   Clear
8:53 PM 64.0 °F 52.0 °F 65% 30.17 in 10.0 mi NNE 4.6 mph - N/A   Clear
9:53 PM 62.1 °F 53.1 °F 72% 30.18 in 10.0 mi North 4.6 mph - N/A   Clear
10:53 PM 60.1 °F 53.1 °F 78% 30.18 in 10.0 mi NNE 4.6 mph - N/A   Clear
11:53 PM 59.0 °F 53.1 °F 81% 30.18 in 10.0 mi Calm Calm - N/A   Clear